sat.trackr.live / text

‹ back to catalog

STARLINK-3809

NORAD 52851 · 2022-062X

PAYLOAD ACTIVE UNKNOWN

§ Identity

Operator
Country
US
Launch date
2022-06-17
Launch site
AFETR
Launch vehicle
Mass (kg)
RCS (m²)

Purposes: comms

External: N2YO · Heavens-Above · Gunter

§ Orbital elements

Epoch: 2026-05-25T00:16:55.435008Z

Period
95.44 min
Inclination
53.2135°
Eccentricity
0.0002131
Mean motion
15.08835600 rev/d
Perigee alt
538.3 km
Apogee alt
541.2 km
Semi-major
6,917.9 km
B*
1.0754e-5
RAAN
41.4961°
Arg perigee
98.3146°
Mean anomaly
261.8088°
Rev number
21,744

§ Raw data

STARLINK-38091 52851U 22062X   26145.01175272 -.00000117  00000+0  10754-4 0  99962 52851  53.2135  41.4961 0002131  98.3146 261.8088 15.08835600217442

JSON: /api/v1/satellites/52851 · /tle

For live sub-satellite position, see the globe view (requires WebGL).

§ Visibility from observer

Set your observer location to see the next 7 days of passes ≥ 10°. The values pass through the URL so the page stays shareable.

No JS? Fill the form by hand. The geolocation button needs JavaScript.